TimeEST,TemperatureF,Dew PointF,Humidity,Sea Level PressureIn,VisibilityMPH,Wind Direction,Wind SpeedMPH,Gust SpeedMPH,PrecipitationIn,Events,Conditions,WindDirDegrees,DateUTC
12:53 AM,68.0,64.9,90,30.14,10.0,Calm,Calm,-,N/A,,Clear,0,2013-01-04 05:53:00
1:53 AM,66.9,64.0,90,30.14,10.0,Calm,Calm,-,N/A,,Clear,0,2013-01-04 06:53:00
2:53 AM,66.0,64.0,93,30.13,10.0,Calm,Calm,-,N/A,,Clear,0,2013-01-04 07:53:00
3:53 AM,66.0,64.0,93,30.13,10.0,Calm,Calm,-,N/A,,Clear,0,2013-01-04 08:53:00
6:53 AM,68.0,66.0,93,30.17,10.0,Calm,Calm,-,N/A,,Clear,0,2013-01-04 11:53:00
7:53 AM,68.0,66.9,96,30.19,10.0,Calm,Calm,-,N/A,,Clear,0,2013-01-04 12:53:00
8:53 AM,73.0,69.1,87,30.22,10.0,North,3.5,-,N/A,,Clear,10,2013-01-04 13:53:00
9:53 AM,77.0,70.0,79,30.22,10.0,SW,3.5,-,N/A,,Clear,230,2013-01-04 14:53:00
10:23 AM,77.0,69.8,78,30.22,10.0,NW,5.8,-,N/A,,Mostly Cloudy,310,2013-01-04 15:23:00
10:50 AM,78.8,71.6,78,30.22,10.0,NNW,3.5,-,N/A,,Mostly Cloudy,340,2013-01-04 15:50:00
10:53 AM,79.0,71.1,77,30.22,10.0,Variable,3.5,-,N/A,,Mostly Cloudy,0,2013-01-04 15:53:00
11:45 AM,80.6,68.0,65,30.20,10.0,North,8.1,-,N/A,,Mostly Cloudy,350,2013-01-04 16:45:00
11:53 AM,80.1,68.0,67,30.20,10.0,NW,4.6,-,N/A,,Mostly Cloudy,320,2013-01-04 16:53:00
12:01 PM,80.6,68.0,65,30.20,10.0,North,4.6,-,N/A,,Mostly Cloudy,360,2013-01-04 17:01:00
12:53 PM,79.0,66.9,66,30.17,10.0,Calm,Calm,-,N/A,,Scattered Clouds,0,2013-01-04 17:53:00
1:53 PM,80.1,66.9,64,30.15,10.0,NNE,4.6,-,N/A,,Mostly Cloudy,20,2013-01-04 18:53:00
2:03 PM,80.6,66.2,61,30.15,10.0,NE,5.8,-,N/A,,Mostly Cloudy,40,2013-01-04 19:03:00
2:53 PM,79.0,68.0,69,30.14,10.0,ESE,8.1,-,0.00,,Mostly Cloudy,110,2013-01-04 19:53:00
3:53 PM,78.1,68.0,71,30.15,10.0,ESE,6.9,-,N/A,,Overcast,110,2013-01-04 20:53:00
4:10 PM,78.8,68.0,69,30.16,10.0,East,5.8,-,N/A,,Overcast,90,2013-01-04 21:10:00
4:53 PM,77.0,68.0,74,30.17,10.0,East,8.1,-,N/A,,Overcast,80,2013-01-04 21:53:00
5:53 PM,75.9,69.1,79,30.18,10.0,East,8.1,-,N/A,,Overcast,90,2013-01-04 22:53:00
6:53 PM,75.0,70.0,84,30.21,10.0,ENE,5.8,-,N/A,,Overcast,60,2013-01-04 23:53:00
7:53 PM,75.0,70.0,84,30.22,10.0,Calm,Calm,-,N/A,,Mostly Cloudy,0,2013-01-05 00:53:00
8:53 PM,75.0,69.1,82,30.24,10.0,NE,4.6,-,N/A,,Overcast,40,2013-01-05 01:53:00
9:39 PM,73.4,69.8,88,30.24,10.0,NNE,5.8,-,N/A,,Mostly Cloudy,30,2013-01-05 02:39:00
9:53 PM,73.9,69.1,85,30.25,10.0,NE,5.8,-,N/A,,Mostly Cloudy,40,2013-01-05 02:53:00
10:13 PM,73.4,69.8,88,30.24,10.0,NNE,5.8,-,N/A,,Scattered Clouds,30,2013-01-05 03:13:00
10:53 PM,72.0,69.1,91,30.25,10.0,North,4.6,-,N/A,,Scattered Clouds,360,2013-01-05 03:53:00
11:25 PM,71.6,69.8,94,30.24,10.0,North,6.9,-,N/A,,Mostly Cloudy,10,2013-01-05 04:25:00
11:53 PM,71.1,68.0,90,30.24,10.0,North,6.9,-,N/A,,Scattered Clouds,360,2013-01-05 04:53:00